Volver al catálogo

CZ-6A DEB

ActivoPO
NORAD 60877·DEBRIS·🇨🇳 China

Lanzado Aug 6, 2024 desde Taiyuan Satellite Launch Center

Loading…

Próximos Pases (próximas 24 horas)

TLE

ActualizadoSource: Space-Track

Época: Sep 14, 2026, 07:40 UTC

1 60877U 24140KG  26257.31985904  .00000166  00000-0  10478-3 0  9996
2 60877  89.0676 274.8327 0179686  23.1694 337.7453 13.91981231105580

Sigue CZ-6A DEB en tiempo real con AllMySat

Download on the App Store